Location: Aulnoy
(48.8410°N, 3.0967°E)
Time: 16:19:43
(UTC+00:00)

Cosmos 1461 - Pass Details

Date: 09 February 2023
Orbit: 492 x 644 km, 65.0° (Epoch: 25 March)

Event Time Altitude Azimuth Distance (km) Brightness Sun altitude
Rises 17:43:42 0° 239° (WSW) 2,778 8.1 -8.0°
Reaches altitude 10° 17:45:59 10° 246° (WSW) 1,910 7.2 -8.4°
Maximum altitude 17:50:04 41° 317° (NW) 885 4.1 -9.0°
Drops below altitude 10° 17:54:26 10° 29° (NNE) 2,024 5.3 -9.7°
Enters shadow 17:55:49 - 34° (NE) 2,543 5.8 -10.0°
